Regional Weather Roundup
Issued by NWS Charleston, SC

Current Version | Previous Version | Text Only | Print | Product List | Glossary Off
Versions: 1 2 3 4 5 6 7 8 9 10 11 12 13 14 15 16 17 18 19 20 21 22 23 24 25 26 27 28 29 30 31 32 33 34 35 36 37 38 39 40 41 42 43 44 45 46 47 48 49 50

000
ASUS42 KCHS 251613
RWRCHS

REGIONAL WEATHER ROUNDUP
NATIONAL WEATHER SERVICE CHARLESTON SC
1200 PM EDT MON JUL 25 2016

NOTE: "FAIR" INDICATES FEW OR NO CLOUDS BELOW 12,000 FEET WITH NO
SIGNIFICANT WEATHER AND/OR OBSTRUCTIONS TO VISIBILITY.

NOT ALL STATIONS ARE QUALITY CONTROLLED. USE DATA WITH CAUTION...
ESPECIALLY DEWPOINT OBSERVATIONS.

SCZ027-030-031-034>040-042>050-251700-
...SOUTHEAST SOUTH CAROLINA...

CITY           SKY/WX    TMP DP  RH WIND       PRES   REMARKS
N CHARLESTON   MOSUNNY   90  73  57 VRB3      30.08F HX  98
WATERFRONT PRK   N/A     86  76  72 S9        30.07S HX  96
MOUNT PLEASANT FAIR      90  77  66 S9        30.09S HX 102
JOHNS ISLAND   FAIR      90  77  66 S10       30.09S HX 102
PINOPOLIS        N/A     86  75  70 SW5       30.02F HX  95
MONCKS CORNER  FAIR      86  70  58 SW7       30.08F HX  90
SUMMERVILLE    FAIR      90  73  58 CALM      30.09F HX  98
BEAUFORT MCAS  MOSUNNY   94  72  48 VRB3      30.09S HX 102
BEAUFORT ARPT  FAIR      90  72  55 S7        30.09S HX  96
HILTON HEAD IS MOSUNNY   95  72  46 S7        30.10S HX 103
WALTERBORO     SUNNY     91  70  49 S9        30.10S HX  97
ALLENDALE      FAIR      90  72  55 VRB6      30.07F HX  96

...SOUTHERN MIDLANDS AND PEE DEE...

CITY           SKY/WX    TMP DP  RH WIND       PRES   REMARKS
GEORGETOWN     FAIR      88  72  58 W3        30.10S HX  94
KINGSTREE      FAIR      90  68  48 S5        30.08F HX  93
ORANGEBURG     SUNNY     90  73  57 VRB7      30.08F HX  98
BARNWELL       NOT AVBL
AIKEN          FAIR      90  72  55 CALM      30.11S HX  96
MANNING        FAIR      88  70  55 S6        30.08F HX  92
COLUMBIA       MOSUNNY   91  71  51 S7        30.06F HX  97
SUMTER         SUNNY     89  72  57 SW7       30.05F HX  96
FLORENCE       PTSUNNY   90  71  53 SW8       30.08S HX  96
MYRTLE BEACH   MOSUNNY   90  70  51 S12       30.10F HX  95
N MYRTLE BEACH MOSUNNY   87  77  72 S13       30.08S HX  99

$$

GAZ063-065-086>088-099>101-113>116-118-119-134>141-150-251700-
...SOUTHEAST GEORGIA...

CITY           SKY/WX    TMP DP  RH WIND       PRES   REMARKS
SAVANNAH ARPT  MOSUNNY   90  70  51 SW8       30.09S HX  95
HUNTER AAF     SUNNY     90  76  64 VRB2      30.07S HX 101
FORT STEWART   SUNNY     88  73  62 SE1       30.07S HX  96
STATESBORO     SUNNY     90  74  60 S3        30.09S HX  99
SYLVANIA       NOT AVBL
CLAXTON        FAIR      89  73  57 CALM      30.08F HX  97

...CSRA...CENTRAL AND FAR SOUTHEAST GEORGIA...

CITY           SKY/WX    TMP DP  RH WIND       PRES   REMARKS
THOMSON        NOT AVBL
AUGUSTA-BUSH   MOSUNNY   95  72  47 SE8       30.05F HX 103
AUGUSTA-DANIEL MOSUNNY   92  73  53 SE5       30.08F HX 100
SWAINSBORO     FAIR      90  73  58 E5        30.08F HX  98
VIDALIA        SUNNY     91  70  49 SE3       30.08F HX  97
EASTMAN        FAIR      92  61  36 CALM      30.10S HX  92
HAZLEHURST     FAIR      92  74  54 CALM      30.07F HX 102
ALMA           SUNNY     89  73  59 S6        30.09S HX  97
WAYCROSS       MOSUNNY   92  78  62 NE5       30.08F HX 108
JESUP          FAIR      90  77  66 CALM      30.09F HX 102
BAXLEY         PTSUNNY   90  79  70 E3        30.09S HX 105
BRUNSWICK      MOSUNNY   91  72  52 SE5       30.10S HX  98
SAINT SIMONS   SUNNY     89  71  55 SE9G16    30.10R HX  95

$$

SCZ027-028-034-036>038-045-046-048>050-GAZ119-141-251700-
...LAKE AND SUPPLEMENTAL COASTAL OBSERVATIONS...

STATION/POSITION TIME  TEMP    WIND        PRES    WAVE   SWELL
                       AIR SEA DIR/SP/G            HT/PER HT/PER/DIR
                 (UTC) (F)     (DEG/KT/KT) (MB)    (FT/S) (FT/S/D)
WINYAH BAY       1445   87     240/  5     1018.0
LAKE MURRAY      1500   86     170/  5/  6 1017.6F
ACE BASIN NERRS  NOT AVBL
FORT PULASKI     1500   86 87  210/  4/  8 1019.4F
SAPELO ISLAND    1500   89     170/  5     1019.0S

$$

ANZ835-935-AMZ111-154-330-350-352-354-370-450-454-472-251700-
...C-MAN AND BUOY OBSERVATIONS...

STATION/POSITION TIME  TEMP    WIND        PRES    WAVE   SWELL
                       AIR SEA DIR/SP/G            HT/PER HT/PER/DIR
                 (UTC) (F)     (DEG/KT/KT) (MB)    (FT/S) (FT/S/D)
BUOY 41004       1550   85 86  220/  6/  8 1018.8F   2/ 9   2/140/ 9
BUOY 41008       1550   84 87  210/  6/  8 1019.1S   2/ 8   2/100/ 8
FOLLY BEACH CMAN 1500   85     190/ 10/ 11 1019.2F
CAPERS NEARSHORE 1508   84 84  210/ 10/ 14 1018.8F
FRIPP NEARSHORE  1508   85 86  230/  4/  8 1018.5F


STATION/POSITION TIME  TEMP    WIND        PRES    WAVE   SWELL
                       AIR SEA DIR/SP/G            HT/PER HT/PER/DIR
                 (UTC) (F)     (DEG/KT/KT) (MB)    (FT/S) (FT/S/D)
5E ST. MARYS GA  1601      86                N/A     2/ 8
FRYING PAN BUOY  1500   84 85  220/  8/ 10 1019.0R
BUOY 41025       1550   84 85  260/  8/  8 1018.7R   3/ 5   2/210/ 5
CAPE LOOKOUT NC  1500   85     240/ 11/ 12 1018.4R
BUOY 41002       1550   83 85  200/  4/  6 1020.2F   2/ 8   2/120/ 8
BUOY 41010       1520   82 87  110/  6/  8 1019.7R
ST AUGUSTINE FL  1600   82 85  130/ 11/ 12 1020.2R


$$




USA.gov is the U.S. government's official web portal to all federal, state and local government web resources and services.